Weather observations for the past three days for
Charlestown
Imperial (Metric)
Date Time (ast) Wind (mph) Vis. (mi.) Weather Sky Cond. Temperature (ºF) Relative Humidity Wind Chill (°F) Heat Index (°F) Pressure Precipitation (in)
Air Dwpt 6 hour altimeter (in) sea level (mb) 1 hr 3 hr 6 hr
Max. Min.
05 13:00 E 14 0.00 Showers in Vicinity BKN018 87.8 77 70% 100 0 0.0
05 12:00 E 13 0.00 Mostly Cloudy BKN022 87.8 77 70% 100 0 0.0
05 11:00 E 10 0.00 Mostly Cloudy BKN020 86 78.8 79% 99 0 0.0
05 10:00 E 14 0.00 Partly Cloudy SCT018 86 78.8 79% 99 0 0.0
05 09:00 E 14 0.00 Partly Cloudy SCT018 86 77 75% 97 0 0.0
05 08:00 E 8 0.00 A Few Clouds FEW018 86 78.8 79% 99 0 0.0
05 07:00 E 9 0.00 A Few Clouds FEW018 84.2 77 79% 94 0 0.0
04 17:00 E 10 0.00 Partly Cloudy SCT020 86 77 75% 97 0 0.0
04 16:00 E 12 0.00 Partly Cloudy SCT020 86 77 75% 97 0 0.0
04 15:00 E 12 0.00 Partly Cloudy SCT022 86 77 75% 97 0 0.0
04 14:00 E 13 0.00 Mostly Cloudy BKN020 87.8 77 70% 100 0 0.0
04 13:00 E 12 0.00 Partly Cloudy SCT020 87.8 77 70% 100 0 0.0
04 12:00 E 12 0.00 Partly Cloudy SCT020 87.8 77 70% 100 0 0.0
04 11:00 E 14 0.00 Partly Cloudy SCT020 87.8 77 70% 100 0 0.0
04 10:00 E 10 0.00 A Few Clouds FEW020 87.8 78.8 75% 102 0 0.0
04 08:00 E 12 0.00 A Few Clouds FEW022 86 77 75% 97 0 0.0
04 07:00 SE 7 0.00 A Few Clouds FEW020 82.4 77 84% 91 0 0.0
03 18:00 E 12 0.00 A Few Clouds FEW018 84.2 75.2 74% 92 0 0.0
03 17:00 E 12 0.00 Partly Cloudy SCT018 86 75.2 70% 95 0 0.0
03 16:00 E 12 0.00 Mostly Cloudy BKN018 86 75.2 70% 95 0 0.0
03 15:00 E 10 0.00 Partly Cloudy SCT022 86 73.4 66% 93 0 0.0
03 14:00 E 7 0.00 Partly Cloudy SCT022 86 75.2 70% 95 0 0.0
03 13:00 E 10 0.00 Showers in Vicinity FEW018TCU 87.8 75.2 66% 98 0 0.0
03 12:00 E 14 0.00 Partly Cloudy SCT020 87.8 75.2 66% 98 0 0.0
03 11:00 E 13 0.00 A Few Clouds FEW019TCU 86 73.4 66% 93 0 0.0
03 10:00 E 7 0.00 A Few Clouds FEW020 86 73.4 66% 93 0 0.0
03 09:00 E 15 0.00 A Few Clouds FEW020 86 73.4 66% 93 0 0.0
03 08:00 E 16 0.00 A Few Clouds FEW020 84.2 73.4 70% 91 0 0.0
03 07:00 E 8 0.00 A Few Clouds FEW020 84.2 73.4 70% 91 0 0.0
02 18:00 E 10 0.00 A Few Clouds FEW012TCU 84.2 75.2 74% 92 0 0.0
02 17:00 NE 10 0.00 Showers in Vicinity FEW012TCU 84.2 77 79% 94 0 0.0
02 16:00 E 13 0.00 Partly Cloudy SCT012TCU 86 75.2 70% 95 0 0.0
02 15:00 E 13 0.00 A Few Clouds FEW012TCU 87.8 77 70% 100 0 0.0
Date Time (ast) Wind (mph) Vis. (mi.) Weather Sky Cond. Air Dwpt Max. Min. Relative Humidity Wind Chill (°F) Heat Index (°F) altimeter (in) sea level (mb) 1 hr 3 hr 6 hr
6 hour
Temperature (ºF) Pressure Precipitation (in)